KLBF

North Platte

Airport
ICAO code
KLBF
Summary
ICAO Region
NAM
ICAO Territory
Location

North Platte, Lincoln County, Nebraska,

Coordinates
41° 7' 34" N , 100° 41' 2" W
KCC
Metar
KLBF 191153Z AUTO 04006KT 10SM BKN100 M01/M04 A3026 RMK AO2 SLP258 T10061044 10006 21039 51006

Description

North Platte Regional Airport, also known as Lee Bird Field, is a public use airport located 3 nm east of the central business district of North Platte, a city in Lincoln County, Nebraska, United States.

Climatology

Humid continental climate (Köppen climate classification Dfa) - characterized by four seasons: cold, windy, snowy winters, mild springs, hot, humid summers, and crisp and relatively short autumns. Precipitation reaches its lowest in January and February and peaks in summer and latter half of spring.

Runways

Designator Length Width Surface Rops
17/35 1352 30 ASP Yes/Yes
12/30 2438 46 CON Yes/Yes

Airport map

Aerial View

SKYbrary Partners:

Safety knowledge contributed by: